Location: Drocourt
(49.0571°N, 1.7669°E)
Time: 07:01:22
(UTC+00:00)

RESURS DK-1 - Pass Details

Date: 09 February 2023
Orbit: 549 x 558 km, 69.9° (Epoch: 30 March)

Event Time Altitude Azimuth Distance (km) Brightness Sun altitude
Rises 17:52:11 0° 322° (NW) 2,742 6.2 -8.6°
Reaches altitude 10° 17:54:32 10° 313° (NW) 1,844 5.5 -8.9°
Maximum altitude 17:58:12 32° 250° (WSW) 973 4.5 -9.5°
Drops below altitude 10° 18:01:52 10° 187° (S) 1,836 5.2 -10.1°
Sets 18:04:13 0° 177° (S) 2,728 6.0 -10.5°
